Погода в Алейском

Россия / Алтайский край     52°28′23″N   82°43′33″E
темп.,
°C
ветер,
м/с
пор.,
м/с
влажн.,
%
обл.,
%
осадки,
мм/ч
давл.,
гПа
погр.,
м
16 апреля, пт
пт1601:00+6ююз3492100 0.0 102369
04:00+6ююз349070 0.0 102160
07:00+5юз36905 0.0 102182
10:00+10юз57770 0.0 1020303
13:00+15зюз68615 0.0 10181050
16:00+17зюз58501 0.0 10161607
19:00+16зюз47546 0.0 1015233
22:00+12ююз596941 0.0 1015153
17 апреля, сб
сб1701:00+10зюз51171100 0.0 1014249
04:00+6с6995100 0.0 1016403
07:00+3ссв6986100 0.0 1018446
10:00+2св6888100 0.1 1020485
13:00+2св468982 0.6 1020427
16:00+6ссв236196 0.1 10191113
19:00+6сз3357100 0.1 1020114
22:00+4с476689 0.0 1021302
18 апреля, вс
вс1801:00+1с34755 0.0 102385
04:000св22796 0.0 102315
07:000вюв227798 0.0 102331
10:00+3ююв2260100 0.0 1021502
13:00+7юз3545100 0.0 10191378
16:00+9юз5839100 0.0 10161779
19:00+10юз484692 0.0 1012426
22:00+8з4969100 0.2 1011283
19 апреля, пн
пн1901:00+7ююз512744 0.4 1008227
04:00+6зюз7147474 0.0 1007452
07:00+5з91683100 0.1 10091232
10:000з1114524 0.0 10141038
13:00+2з9114577 0.0 10171588
16:00+4зсз81041100 0.0 10181940
19:00+2зсз7844100 0.0 10201636
22:00−1сз47576 0.0 1022334
20 апреля, вт
вт2001:00−2ссз34645 0.0 1023439
04:00−2зсз23635 0.0 1023315
07:00−3сз24637 0.0 1024566
10:00−1ссз4443100 0.1 10251604
13:00+1ссз3334100 0.1 10242127
16:00+2с4335100 0.0 10232047
19:00+1ссв5538100 0.0 10231692
22:00−1ссв5955100 0.0 1023561